Location: Newark
(45.9456°N, 15.4064°E)
Time: 18:59:54
(UTC+00:00)

Vanguard 3 - Pass Details

Date: 27 January 2020
Orbit: 508 x 3263 km, 33.3° (Epoch: 17 February)

Event Time Altitude Azimuth Distance (km) Brightness Sun altitude
Rises 13:24:32 0° 197° (SSW) 6,339 13.1 18.8°
Reaches altitude 10° 13:29:41 10° 185° (S) 5,671 12.7 18.3°
Maximum altitude 13:42:48 25° 139° (SE) 4,984 11.4 17.0°
Drops below altitude 10° 13:56:37 10° 94° (E) 6,058 11.3 15.5°
Sets 14:02:16 0° 83° (E) 6,852 11.4 14.8°
